Weather in Zelenolugskiy

Russia / Rostov Oblast     47°24′53″N   41°12′20″E
temp.,
°C
wind,
m/s
gust,
m/s
humid.,
%
clouds,
%
prec.,
mm/h
press.,
hPa
HPBL,
m
15 may, sat
sat1500:00+18ese3384100 0.0 101127
03:00+17ese367289 0.0 1011116
06:00+16se237668 0.0 101262
09:00+22wnw116768 0.0 1013389
12:00+25ne33595 0.0 1013772
15:00+27ne11565 0.0 10131051
18:00+27ne11650 0.0 1012223
21:00+21ene11755 0.0 101211
16 may, sun
sun1600:00+19nne228284 0.0 101215
03:00+18ne34845 0.0 101250
06:00+16e3767100 0.0 1012129
09:00+22ese595368 0.0 1012433
12:00+26ese71043100 0.0 1011934
15:00+28ese613479 0.0 10091577
18:00+24ene41063100 0.0 1007216
21:00+20e51365100 0.0 1008216
17 may, mon
mon1700:00+19e6165037 0.0 1007361
03:00+16e61648100 0.0 1007387
06:00+16e61660100 0.0 1007394
09:00+21ese61357100 0.0 1007796
12:00+26se71046100 0.0 10081200
15:00+28s610451 0.0 10071556
18:00+25sw346512 0.0 1007150
21:00+20w3378100 0.0 100921
18 may, tue
tue1800:00+17wnw378778 0.2 1009143
03:00+16w3792100 0.3 1009201
06:00+16wsw6109253 0.0 1011451
09:00+20wnw67717 0.0 1010594
12:00+22w45625 0.0 10111187
15:00+24wsw345634 0.0 10111436
18:00+21wsw4771100 0.1 1011407
21:00+17wsw357999 0.1 101271
19 may, wed
wed1900:00+15w35893 0.0 101174
03:00+14wsw22915 0.0 101222
06:00+15ssw37885 0.0 1013220
09:00+20sw57665 0.0 1013651
12:00+23sw675489 0.0 10131523
15:00+23sw785756 0.2 10131620
18:00+20w47816 1.4 1013276
21:00+17nw118839 2.5 101314